TIME,DELAY(SENSOR),PRES,T(CTD),SAL,OXYGEN,RAWTEMP,T(OPTODE),TCPHASE,FLUOR,BETA(BETA700),BETA(BETA412),BETA(BETA440),CDOM,C(CSC),ED(ED411.90),ED(ED443.80),ED(ED489.40),ED(ED554.70),LU(LU412.20),LU(LU443.80),LU(LU489.40),LU(LU555.00),COMP,TILTX,TILTX(TILTY),CHECK
1342539023,5806,497.5000000000000000,17.2803993225097660,36.4258003234863300,229.8578033447265600,179.1083984375000000,17.2782192230224600,31.3078498840332030,50,101,98,79,68,14334,2146954358,2147515337,2147269906,2147469458,2147090249,2146949385,2147658432,2147118262,2916,-2,8,30675
1342539140,5806,486.6499938964844000,17.3269004821777340,36.4314994812011700,228.8663024902343800,177.2754974365234400,17.3335094451904300,31.3324508666992200,50,100,98,81,68,14333,2146955035,2147515364,2147269430,2147471469,2147087542,2146955520,2147649645,2147116352,3014,-2,8,32574
1342539267,5804,475.1799926757812500,17.4571990966796880,36.4584007263183600,230.5341949462890600,173.3323974609375000,17.4524593353271500,31.1955890655517580,50,101,99,81,68,14331,2146953746,2147516854,2147271862,2147464338,2147086811,2146952859,2147655277,2147114496,2596,-2,8,18048
1342539396,5805,463.7799987792969000,17.5049991607666000,36.4686012268066400,232.5711975097656200,171.7754974365234400,17.4994392395019530,31.0742607116699220,50,101,98,80,67,14333,2146954907,2147511936,2147269449,2147468114,2147090349,2146950281,2147656374,2147117933,2236,-2,8,60348
1342539511,5805,453.6600036621094000,17.5606002807617200,36.4770011901855500,232.2830047607422000,169.9095001220703000,17.5557403564453120,31.0633506774902340,50,101,97,79,67,14333,2146953947,2147514048,2147267273,2147465088,2147085961,2146953024,2147653696,2147123876,2035,-2,8,52042
1342539638,5805,441.8699951171875000,17.6086997985839840,36.4861984252929700,232.5933990478515600,168.2454071044922000,17.6059608459472660,31.0255699157714840,50,100,98,79,68,14335,2146954505,2147512640,2147270235,2147464000,2147086445,2146952713,2147650925,2147125549,2439,-2,8,55742
1342539755,5805,431.2500000000000000,17.6833000183105470,36.4995002746582000,233.4698944091797000,165.7398986816406200,17.6815700531005860,30.9488506317138670,50,100,97,80,68,14332,2146953380,2147514532,2147264292,2147464274,2147087113,2146953517,2147654857,2147122779,2386,-2,8,47565
1342539882,5802,420.0000000000000000,17.7392005920410160,36.5107002258300800,234.8233947753906200,163.8854980468750000,17.7375392913818360,30.8583507537841800,50,101,98,81,67,14333,2146949513,2147512996,2147267081,2147465024,2147086674,2146953362,2147654308,2147124086,1980,-2,8,37000
1342539999,5802,409.6199951171875000,17.7982006072998050,36.5209007263183600,235.8726959228515600,162.0668029785156200,17.7924404144287100,30.7830791473388670,50,100,99,80,67,14331,2146954084,2147514230,2147263780,2147464667,2147087542,2146952786,2147653449,2147127835,2628,-2,8,48978
1342540126,5802,398.5199890136719000,17.8708992004394530,36.5355987548828100,236.9571990966797000,159.6804962158203000,17.8644790649414060,30.6992301940917970,50,101,97,80,68,14333,2146953362,2147513664,2147270244,2147464374,2147090340,2146947136,2147653385,2147126509,2168,-2,8,53882
1342540253,5806,387.3699951171875000,17.9037990570068360,36.5411987304687500,237.5603942871093800,158.5621948242187500,17.8982505798339840,30.6554908752441400,50,100,98,82,66,14334,2146952749,2147512768,2147267684,2147462189,2147087515,2146953545,2147651858,2147128393,1636,-2,8,26473
1342540382,5804,375.6799926757812500,17.9638004302978500,36.5504989624023440,238.0124969482422000,156.6000976562500000,17.9574909210205080,30.6077709197998050,50,99,98,81,67,14332,2146954688,2147515437,2147267126,2147463387,2147089088,2146952621,2147654573,2147122989,2128,-2,8,10694
1342540509,5802,364.0599975585937500,18.0195999145507800,36.5573997497558600,237.5142059326172000,154.6439056396484400,18.0165691375732420,30.6051902770996100,50,102,98,81,67,14332,2146951570,2147515008,2147269988,2147465252,2147086738,2146952027,2147657691,2147123574,1623,-2,8,37791
1342540626,5803,353.2099914550781000,18.0520992279052730,36.5625000000000000,237.3430023193359400,153.6264038085937500,18.0473003387451170,30.5999794006347660,51,101,99,80,67,14330,2146951670,2147515474,2147272667,2147463168,2147088667,2146948434,2147657161,2147125056,1546,-2,8,49863
1342540741,5807,342.5299987792969000,18.0846996307373050,36.5665016174316400,237.2250976562500000,152.5240936279297000,18.0805892944335940,30.5907993316650400,51,103,98,80,68,14332,2146953462,2147516681,2147274386,2147464237,2147086930,2146947986,2147656969,2147125120,1845,-2,8,4594
1342540868,5806,330.9400024414062500,18.1177997589111330,36.5681991577148440,236.2740936279297000,151.4521026611328000,18.1129703521728500,30.6219005584716800,50,103,98,81,67,14328,2146952027,2147515593,2147276800,2147461321,2147093376,2146955885,2147658432,2147125339,1270,-2,8,31814
1342540985,5800,320.3900146484375000,18.1518993377685550,36.5714988708496100,235.2895050048828000,150.3401031494140600,18.1465606689453120,30.6543006896972660,51,103,99,80,67,14325,2146952219,2147517878,2147277732,2147465088,2147090221,2146956562,2147659492,2147125412,1282,-2,8,53575
1342541112,5804,309.2099914550781000,18.2052001953125000,36.5756988525390600,234.7292022705078000,148.6497955322265600,18.1976299285888670,30.6588401794433600,50,102,99,81,67,14324,2146955638,2147514450,2147282806,2147462043,2147091062,2146959222,2147661293,2147126189,1587,-2,8,24549
1342541241,5804,298.2200012207031000,18.2688999176025400,36.5844001770019500,234.0747070312500000,146.4116058349609400,18.2652606964111330,30.6605701446533200,51,103,99,80,68,14324,2146953773,2147522166,2147291721,2147459949,2147086354,2146963776,2147664905,2147123145,1193,-2,8,23994
1342541368,5806,287.7699890136719000,18.2970008850097660,36.5870018005371100,233.7901000976562500,145.3923950195312500,18.2960605621337900,30.6606807708740230,50,107,100,81,67,14319,2146951341,2147523126,2147298102,2147459840,2147085248,2146969773,2147670811,2147122998,902,-2,8,3904
1342541507,5807,276.7699890136719000,18.4249000549316400,36.5997009277343750,232.3713073730468800,141.3260955810547000,18.4189605712890620,30.6752796173095700,50,105,99,81,66,14319,2146955081,2147527314,2147312813,2147460772,2147087305,2146964946,2147676562,2147124763,62,-2,8,30570
1342541660,5804,265.4899902343750000,18.4904003143310550,36.6063995361328100,231.3798065185547000,139.1446990966797000,18.4848995208740230,30.6944999694824220,51,105,100,81,67,14318,2146953645,2147532022,2147328045,2147460882,2147078857,2146974610,2147687634,2147125970,2977,-2,8,15131
1342541811,5804,254.6699981689453000,18.5823001861572270,36.6081008911132800,230.2276000976562500,135.7825012207031200,18.5865707397460940,30.7063198089599600,51,104,99,81,68,14316,2146952640,2147540150,2147351259,2147459245,2147080493,2146977590,2147697344,2147126500,2855,-2,8,18289
1342541945,5808,243.6600036621093800,18.6312999725341800,36.5699005126953100,235.1618041992187500,134.4649963378906200,18.6264095306396500,30.4493598937988280,51,104,98,82,67,14320,2146952621,2147553179,2147387849,2147461458,2147079286,2146985078,2147719021,2147128338,2671,-2,8,4152
1342542072,5805,231.9400024414062500,18.7040004730224600,36.5513000488281250,242.5960998535156200,131.7276000976562500,18.7092094421386720,30.0640392303466800,51,103,98,82,67,14318,2146956827,2147572370,2147430528,2147460580,2147085394,2146998070,2147742656,2147128054,2825,-2,8,20787
1342542189,5805,221.6900024414062500,18.8936996459960940,36.5668983459472660,240.8587951660156200,125.5690994262695300,18.8955593109130860,30.0636405944824220,52,106,99,81,67,14316,2146955894,2147595483,2147487451,2147457188,2147085641,2147011072,2147774208,2147129353,2587,-2,8,50807
1342542316,5804,210.6499938964843800,19.1490993499755860,36.5890998840332000,243.8094024658203000,117.4727020263671900,19.1406993865966800,29.8217201232910160,52,106,99,82,66,14315,2146964507,2147626331,2147573348,2147460032,2147093549,2147035492,2147823780,2147132214,2569,-2,8,975
1342542443,5804,199.4499969482422000,19.1588001251220700,36.5738983154296900,248.9263000488281200,116.9907989501953100,19.1552906036376950,29.5847892761230470,52,108,100,82,65,14315,2146967414,2147678171,2147684196,2147456996,2147091154,2147074468,2147887158,2147137481,2129,-2,8,6760
1342542517,5806,193.1600036621093800,19.1844005584716800,36.5694999694824200,251.2220001220703000,116.3548965454101600,19.1745491027832030,29.4749603271484380,55,113,100,82,65,14310,2146976009,2147714048,2147771757,2147458468,2147094436,2147100900,2147939254,2147139062,1630,-2,8,14308
1342542572,5806,188.6199951171875000,19.1818008422851560,36.5624008178710940,252.4006042480468800,116.3225021362304700,19.1755409240722660,29.4227695465087900,58,112,100,81,66,14303,2146979309,2147741814,2147842532,2147458166,2147108635,2147120603,2147978477,2147142573,1149,-2,8,46690
1342542627,5803,184.0099945068359400,19.2005004882812500,36.5662002563476560,252.8594970703125000,115.6045989990234400,19.1972808837890620,29.3933601379394530,57,111,101,83,64,14303,2146985773,2147780397,2147925714,2147458998,2147101028,2147146066,2148031908,2147142308,1046,-2,8,21267
1342542682,5805,179.4600067138672000,19.2439994812011720,36.5695991516113300,253.4880065917968800,114.1635971069336000,19.2409400939941400,29.3474502563476560,63,121,102,83,64,14289,2146993755,2147826688,2148028827,2147458697,2147104320,2147180699,2148077211,2147145883,576,-2,8,41072
1342542737,5804,174.9799957275390600,19.2695999145507800,36.5707015991210940,253.6907958984375000,113.3770980834961000,19.2647705078125000,29.3283996582031250,63,118,101,82,65,14292,2147005632,2147873910,2148139794,2147456283,2147106816,2147216475,2148145188,2147148525,398,-2,8,57211
1342542792,5805,170.4199981689453000,19.2854995727539060,36.5722007751464840,253.8892059326172000,112.7586975097656200,19.2835102081298830,29.3118190765380860,60,120,102,83,65,14297,2147015296,2147936786,2148276982,2147457042,2147124992,2147256612,2148219355,2147150747,539,-2,9,9754
1342542870,5807,164.3099975585937500,19.3127994537353500,36.5750999450683600,254.2884979248047000,111.8255004882812500,19.3117904663085940,29.2823295593261720,67,127,102,83,65,14287,2147037421,2148028342,2148482898,2147459574,2147133897,2147325321,2148340854,2147161572,486,-2,8,3193
1342542925,5806,160.5200042724609400,19.3328990936279300,36.5756988525390600,253.7606964111328000,111.3643035888671900,19.3257694244384770,29.2995491027832030,73,127,102,84,64,14275,2147052333,2148104576,2148642816,2147461504,2147143808,2147378898,2148428690,2147165485,374,-2,8,23712
1342542980,5805,156.8300018310547000,19.3386001586914060,36.5750007629394500,254.3580932617187500,111.0969009399414000,19.3338699340820300,29.2699394226074220,76,130,103,84,65,14265,2147078290,2148199661,2148835638,2147461842,2147159917,2147433161,2148525357,2147172269,217,-2,8,41978
1342543035,5803,153.1699981689453000,19.3449993133544920,36.5741004943847660,255.0709991455078000,110.8393020629882800,19.3416805267334000,29.2359008789062500,84,129,102,84,63,14253,2147108489,2148305243,2149059830,2147461156,2147179456,2147498313,2148636608,2147176658,93,-2,8,46883
1342543102,5808,148.8300018310547000,19.3680992126464840,36.5742988586425800,255.2617950439453000,110.1549987792968800,19.3624191284179700,29.2187500000000000,97,135,103,85,65,14248,2147149970,2148458587,2149359524,2147468324,2147184658,2147584932,2148784384,2147187346,69,-2,8,50185
1342543180,5802,144.3300018310547000,19.3780002593994140,36.5745010375976560,255.4409027099609400,109.7052993774414000,19.3760509490966800,29.2054195404052730,107,129,103,85,64,14241,2147196644,2148649709,2149748946,2147471689,2147214006,2147681316,2148942701,2147198226,3513,-2,8,36026
1342543259,5805,140.6799926757812500,19.4022998809814450,36.5755004882812500,255.8036956787109400,108.9977035522461000,19.3974990844726560,29.1807098388671880,126,138,104,85,65,14227,2147259026,2148866075,2150168859,2147476306,2147243958,2147769965,2149097033,2147207067,3330,-2,8,411
1342543350,5804,136.6799926757812500,19.4512996673584000,36.5806007385253900,256.1229858398437500,107.5873031616211000,19.4402503967285160,29.1490001678466800,149,144,103,86,65,14207,2147347200,2149180068,2150745883,2147481252,2147282962,2147876717,2149290541,2147223232,2890,-2,8,35288
1342543441,5803,132.7599945068359400,19.4668006896972660,36.5797004699707000,256.6228027343750000,106.8740997314453100,19.4618797302246100,29.1182308197021500,164,144,105,85,64,14183,2147466925,2149621403,2151535442,2147492717,2147327305,2148023341,2149538148,2147240521,3267,-2,8,52175
1342543534,5803,128.8600006103515600,19.4769001007080080,36.5779991149902340,257.1960144042969000,106.5438003540039000,19.4719009399414060,29.0896205902099600,168,144,105,87,65,14166,2147624822,2150194048,2152513691,2147506806,2147385755,2148208210,2149841206,2147267081,2850,-3,8,51067
1342543637,5801,124.6299972534179700,19.4901008605957030,36.5797004699707000,257.8337097167969000,106.0728988647461000,19.4861698150634770,29.0563392639160160,170,144,104,86,64,14162,2147843684,2150951524,2153764681,2147520694,2147468059,2148478098,2150268032,2147301403,2254,-2,8,15571
1342543728,5809,120.9100036621093800,19.5319004058837900,36.5840988159179700,258.8555908203125000,104.8136978149414000,19.5243606567382800,28.9968795776367200,171,135,104,87,66,14167,2148105572,2151823881,2155115081,2147542162,2147568393,2148771163,2150694317,2147337334,2720,-2,8,41323
1342543833,5805,116.7699966430664000,19.5524997711181640,36.5843009948730500,261.7738952636719000,104.0427017211914000,19.5477409362792970,28.8640594482421880,158,131,103,85,67,14175,2148538596,2153150491,2157037357,2147574217,2147710381,2149218669,2151339904,2147391643,2924,-2,8,1587
1342543936,5806,112.9199981689453100,19.6147994995117200,36.5831985473632800,264.7524108886719000,102.1524963378906200,19.6050701141357420,28.7163791656494140,138,127,106,86,66,14154,2149077458,2154669202,2159092306,2147612882,2147893915,2149763611,2152056320,2147459940,2768,-2,8,4609
1342544051,5806,108.6900024414062500,19.6544990539550780,36.5835990905761700,266.7876892089844000,100.6751022338867200,19.6498908996582030,28.6142196655273440,129,124,104,85,66,14181,2149814198,2156557705,2161444845,2147665581,2148180672,2150552246,2153036516,2147543853,2934,-2,8,27630
1342544150,5810,104.2300033569336000,19.7012996673584000,36.5830993652343750,268.4797058105469000,99.1719970703125000,19.6954994201660160,28.5263099670410160,106,125,103,85,66,14190,2150962358,2159312594,2164831323,2147758619,2148630729,2151762212,2154482514,2147674212,2652,-2,8,26213
1342544217,5803,100.4800033569336000,19.7131004333496100,36.5849990844726560,269.7369079589844000,98.7372970581054700,19.7086906433105470,28.4700298309326170,105,125,104,86,65,14188,2152180461,2162020882,2168054793,2147854299,2149151734,2153065133,2155928073,2147806125,2026,-2,8,53541
1342544272,5807,97.2600021362304700,19.7549991607666000,36.5858001708984400,270.8797912597656000,97.3497161865234400,19.7507991790771500,28.4066009521484380,107,123,104,85,65,14182,2153414765,2164609280,2170947657,2147959826,2149658075,2154273581,2157250249,2147928914,1845,-2,8,14648
1342544327,5803,94.0599975585937500,19.7870998382568360,36.5867004394531250,272.0888977050781000,96.2450866699218800,19.7843303680419920,28.3444690704345700,102,127,105,86,65,14178,2154962496,2167709604,2174363648,2148095753,2150336155,2155776164,2158864694,2148069851,1950,-2,8,57050
1342544382,5808,91.0500030517578100,19.8001995086669920,36.5849990844726560,272.6133117675781000,95.8025207519531200,19.7977600097656250,28.3179607391357420,100,127,105,86,66,14173,2156685842,2171046985,2177991881,2148246838,2151074806,2157371437,2160471625,2148223222,1885,-2,8,30344
1342544439,5805,87.9899978637695300,19.8677997589111330,36.5876007080078100,273.1506958007812500,93.4656829833984400,19.8687095642089840,28.2673301696777340,94,127,104,88,65,14180,2158999524,2175342601,2182632877,2148480868,2152070674,2159440164,2162468544,2148422866,2363,-2,8,14744
1342544494,5803,85.2600021362304700,19.9326000213623050,36.5906982421875000,274.1412963867187500,91.5724868774414000,19.9262008666992200,28.2044391632080080,95,131,104,85,65,14161,2160911817,2178460361,2185541193,2148662436,2153003629,2161241709,2164093129,2148580653,2369,-2,8,54404
1342544549,5803,82.8399963378906200,19.9634990692138670,36.5896987915039060,274.0682983398437500,90.6165466308593800,19.9552307128906250,28.1952896118164060,96,127,106,87,63,14154,2163348489,2182626395,2189656173,2148880548,2154189056,2163514797,2166300726,2148789421,2009,-2,8,43142
1342544604,5805,80.5699996948242200,20.0573005676269530,36.5987014770507800,274.2419128417969000,88.3769836425781200,20.0232696533203120,28.1602897644042970,91,133,107,86,63,14154,2166139099,2187161691,2194060818,2149137910,2155487890,2165869988,2168399552,2149003108,2028,-2,8,54159
1342544659,5806,78.5800018310546900,20.0844001770019530,36.5852012634277340,275.4295043945312500,86.6710433959961000,20.0750999450683600,28.0922908782959000,90,129,106,86,63,14147,2168662628,2190650953,2196877266,2149376914,2156762962,2168016182,2170112886,2149179328,2414,-2,9,58763
1342544714,5804,76.7699966430664000,20.1611003875732420,36.5887985229492200,275.7395935058594000,84.6523590087890600,20.1364498138427730,28.0550193786621100,84,133,109,88,63,14146,2172260589,2196497170,2202790436,2149727990,2158405869,2170917238,2172691611,2149445915,2606,-2,8,44710
1342544771,5803,75.0899963378906200,20.2408008575439450,36.5954017639160160,275.8315124511719000,81.8554534912109400,20.2214794158935550,28.0163803100585940,80,132,107,88,64,14142,2175140150,2200416347,2206055597,2149975149,2159918144,2173294080,2174386176,2149626441,3293,-2,8,50152
1342544838,5806,73.0800018310546900,20.3586997985839840,36.5929985046386700,277.5573120117187500,77.9713134765625000,20.3395996093750000,27.9008407592773440,80,132,108,88,63,14136,2179244150,2206384758,2211719113,2150436544,2162199926,2177108754,2177682779,2149986084,41,-2,8,17227
1342544905,5806,71.2399978637695300,20.4703998565673830,36.5979003906250000,278.8577880859375000,74.2664489746093800,20.4523296356201170,27.8047904968261720,80,134,108,87,62,14115,2182723172,2211261851,2216237650,2150846875,2164182912,2180216237,2180156617,2150266093,563,-2,8,63685
1342544996,5805,69.4100036621093800,20.5886993408203120,36.5968017578125000,278.6512145996094000,70.4074935913086000,20.5697994232177730,27.7647991180419920,76,128,108,88,65,14105,2185922258,2215237586,2219329389,2151188827,2166361078,2183623707,2182850660,2150562020,937,-2,8,2229
1342545121,5806,67.1800003051757800,20.7271995544433600,36.6039009094238300,280.7865905761719000,65.4719085693359400,20.7201309204101560,27.6221504211425780,74,131,108,89,60,14113,2191995309,2223047259,2226392338,2151952722,2170133650,2189162678,2186990473,2151023945,397,-2,8,24625
1342545188,5804,65.2099990844726600,20.8073005676269530,36.6057014465332000,281.5802917480469000,62.7727584838867200,20.8023891448974600,27.5585308074951170,73,131,109,89,61,14103,2198029568,2231265325,2234262573,2152847734,2173499200,2194116416,2190727259,2151405494,3100,-2,9,60094
1342545267,5803,63.1899986267089840,21.0237007141113280,36.5989990234375000,281.1712951660156000,55.6852302551269500,21.0185203552246100,27.4868793487548830,70,132,107,87,59,14107,2203498322,2237718043,2239482678,2153498550,2177601673,2199985856,2195066541,2151859291,2533,-3,8,44961
1342545370,5803,61.6599998474121100,21.2040004730224600,36.5923995971679700,281.4168090820312500,50.1917304992675800,21.1861991882324220,27.4100399017334000,69,132,106,90,61,14103,2209426633,2245015094,2245797549,2154206381,2181957110,2205761170,2199192896,2152401590,1270,-2,8,40466
1342545484,5804,59.0099983215332000,21.3363990783691400,36.5915985107421900,282.2044067382812500,45.3614807128906250,21.3337402343750000,27.3212890625000000,67,132,109,90,62,14091,2220857682,2258952484,2258515556,2155972617,2190497188,2216993362,2207189321,2153389348,1094,-2,8,63863
1342545539,5807,57.0299987792968750,21.3787002563476560,36.5918006896972660,282.4617919921875000,44.0028114318847660,21.3752593994140620,27.2949504852294920,66,133,108,88,59,14102,2226278528,2263802825,2261694564,2156885385,2196319561,2224351323,2212287149,2153983716,1199,-2,8,6545
1342545594,5805,54.9399986267089840,21.4080009460449220,36.5880012512207000,282.4234924316406000,42.9389801025390600,21.4077796936035160,27.2833309173584000,65,135,109,89,62,14070,2237681810,2277662610,2274610194,2158915501,2204090733,2234146020,2219322166,2154999058,1369,-2,9,56707
1342545735,5805,50.4000015258789060,21.5485992431640620,36.5754013061523440,282.0607910156250000,39.2821197509765600,21.5195903778076170,27.2522792816162100,65,132,107,89,59,14075,2259366829,2301206052,2295178989,2163542564,2221359844,2255112484,2234057819,2157008850,1440,-2,8,12685
1342545792,5807,48.3199996948242200,21.7350997924804700,36.5712013244628900,281.2691955566406000,34.0927085876464840,21.6783695220947270,27.2187690734863280,62,134,109,89,58,14095,2264082678,2303788224,2296159405,2165195830,2229368685,2264105892,2239701641,2157802002,1765,-2,8,47819
1342545837,5804,46.4199981689453100,21.8435001373291000,36.5649986267089840,280.6495971679687500,28.8819599151611330,21.8379402160644530,27.1786994934082030,62,135,108,87,61,14093,2281899328,2325782729,2317582994,2168915876,2241925339,2278651273,2250163922,2159538194,1950,-2,9,789
1342545882,5805,44.6699981689453100,21.9694995880126950,36.5555000305175800,280.2728881835937500,24.7920703887939450,21.9632797241210940,27.1431407928466800,62,132,108,90,59,14098,2286125796,2327506139,2317966555,2170682788,2249016850,2286128329,2254079926,2160123446,2463,-2,8,31712
1342545939,5802,42.8400001525878900,22.0692005157470700,36.5494995117187500,279.9834899902344000,20.9576892852783200,22.0808696746826170,27.1074504852294920,61,139,109,91,59,14092,2297982985,2340459565,2329665115,2173575579,2262073371,2300353216,2264093549,2161829659,2174,-3,9,3120
1342546032,5804,40.8400001525878900,22.5181999206542970,36.5009002685546900,278.3168029785156000,8.9710769653320310,22.4489593505859380,27.0249691009521500,60,129,110,88,62,14089,2309282121,2351595099,2340281398,2177981778,2270716269,2308100818,2268545490,2162896182,1286,-2,9,2912
1342546149,5808,38.8899993896484400,22.9871997833251950,36.4454994201660160,274.6781005859375000,-6.5186800956726070,22.9258003234863280,26.9762706756591800,61,130,107,87,57,14095,2323086866,2366656832,2354627090,2183225014,2286118153,2325003931,2280039232,2165094482,1780,-2,8,64488
1342546446,5805,36.8600006103515600,23.2283992767334000,36.4315986633300800,270.2302856445312500,-16.6393394470214840,23.2381191253662100,27.0260391235351560,58,133,109,88,58,14109,2333649929,2377008493,2365073773,2187422464,2301618596,2341956498,2291378505,2166929490,376,-2,8,17262
1342546659,5809,34.9399986267089840,23.5545005798339840,36.4035987854003900,267.3460083007812500,-27.6599807739257800,23.5789299011230470,27.0056190490722660,58,126,106,88,57,14110,2335604452,2376880950,2363804050,2190324160,2307671707,2347194066,2294412278,2167821238,2807,-2,8,6567
1342546774,5804,32.8499984741210940,23.6357994079589840,36.4048004150390600,266.5447082519531000,-29.9663391113281250,23.6503505706787100,27.0093898773193360,56,128,106,88,57,14115,2362371035,2407963099,2396333394,2202649792,2329890898,2368866203,2307872109,2170581467,164,-2,8,48444
1342546843,5807,30.8199996948242200,23.8866004943847660,36.3825988769531250,264.8778076171875000,-37.4674110412597660,23.8828792572021500,26.9846992492675780,57,132,106,86,61,14114,2368769298,2412973659,2401416009,2210689170,2348974162,2387764992,2319980397,2173242212,2507,-2,9,14853
1342547079,5806,28.7999992370605470,24.7413005828857420,36.2588005065918000,259.4281921386719000,-62.5880584716796900,24.6643791198730470,26.8998394012451170,55,132,106,88,55,14103,2372097627,2414850249,2402521572,2213351780,2370853302,2409050532,2331942308,2175594258,2927,-3,8,52389